{"data":{"norad_id":61520,"epoch":"2026-09-21T10:37:42.842208Z","epoch_age_seconds":110638,"freshness":"FRESH","line1":"1 61520U 24183M   26264.44285697 -.00000099  00000+0  85723-5 0  9995","line2":"2 61520  53.1615 311.7348 0001209  71.5859 288.5274 15.31699325109641","mean_motion":15.31699325,"eccentricity":0.0001209,"inclination_deg":53.1615,"raan_deg":311.7348,"arg_perigee_deg":71.5859,"mean_anomaly_deg":288.5274,"bstar":8.5723e-6,"rev_number":10964,"period_min":94.01322939148,"perigee_km":469.91397789427,"apogee_km":471.57003683825,"semimajor_km":6848.8790073663,"source":"CELESTRAK","updated_at":"2026-09-22T09:00:49.357093Z"}}